Showing default

NORSAT 4, 62702

Orbit data source: Space-Track

NORSAT 4, 62702 is a payload satellite owned by NSC (NO) in SSO that was launched on Tue, 14 Jan 2025 UTC via an FALCON 9 launch vehicle from the Air Force Western Test Range (AFWTR). Payload-class satellites include a variety of spacecraft equipped with specific instruments for various scientific and technological missions. These include communications satellites like Starlink; space stations such as the ISS; scientific satellites like the Hubble; Earth observation satellites from companies like Planet Labs, Umbra, and HawkEye 360; GPS; miniature CubeSats for education and research; and military/defense satellites.

Loading next visibility...
Identifier
62702, 2025-009CX
Orbit
SSO
Country
Flag of NONO / NOR
Related business
Manufacturer
UTIAS-SFL
Mission
Operational Civil Com/Tech
Bus & Motor
DEFIANT, Unknown motor
Mass
35 kg wet, 35 kg dry
Launch date (UTC)
2025-01-14 (1 year ago)
Launch vehicle
FALCON 9
Launch site
Air Force Western Test Range (AFWTR)
Object type
Payload
Rocket body
Debris
Shape & HBR
Box, 0.6 m
Radar Cross Section
0.165 m², Medium (>0.1 m² and < 1m²)

Expand to show TLE details & history
Last TLE update: 20 hours ago

TLE from 20 hours ago
0 NORSAT 4
1 62702U 25009CX  26034.63089474  .00003379  00000-0  31863-3 0  9995
2 62702  97.7153 115.6766 0003052 111.8358 248.3187 14.94444583 57416
Epoch: 2026-02-03T15:08Z
TLE epoch observation values (Epoch: 2026-02-03T15:08:29.305Z)
Latitude
-0.00005°
Longitude
114.74544°
Altitude
587.93 km
Speed
7.566 km/s
True Right ascension
07h 42m 42s
True Declination
0° 00' 00"
Sunlit
Object was in full shadow at epoch
Visualization orbit readout
Latitude
Unknown
Longitude
Unknown
Altitude
Unknown
Speed
Unknown
Apparent Right ascension
Unknown
Apparent Declination
Unknown
Sunlit
N/A
Visualization observer readout
Local Sidereal Time
13:02:42
Azimuth
Unknown
Elevation
Unknown
Doppler factor
Unknown
Orbital elements
Apogee altitude
583.235 km
Perigee altitude
578.987 km
Semi-major axis
6,959.248 km
Eccentricity
0.00031
Inclination
97.7153°
RAAN
115.6766°
Arg. of periapsis
111.8358°
True anomaly
248.28621°
Mean anomaly
248.3187°
Eccentric anomaly
248.30245°
Mean motion
3.73852 °/min
Orbital period
96.29 mins
BSTAR
0.00031863
Loading maneuver chart data...
Computing Atmospheric mass density...
Loading historical data...
Loading historical data...
Loading historical data...
Loading historical data...
Loading historical data...
Loading historical data...
Loading historical data...

Documentation

Showing up to 5 results
|